Tracking 25701 objects as of 3-Jul-2022
HD Live streaming from Space Station
objects crossing your sky now

FENGYUN 1C DEB

Track FENGYUN 1C DEB now!
10-day predictions


NORAD ID: 31353
Int'l Code: 1999-025BRH
Perigee: 642.5 km
Apogee: 997.1 km
Inclination: 99.1 °
Period: 101.1 minutes
Semi major axis: 7190 km
RCS: 0.0153 m2 (small)
Launch date: May 10, 1999
Source: People's Republic of China (PRC)
Launch site: Taiyaun Space Center, China (TSC)

Note: This is SATELLITE DEBRIS
aabbcc
Your satellite tracking list
Your tracking list is empty




NASA's NSSDC Master Catalog

Two Line Element Set (TLE):
1 31353U 99025BRH 22173.46954329  .00000726  00000-0  24848-3 0  9991
2 31353  99.0787  44.4646 0246593 132.8092 229.4107 14.23763425789612
Source of the keplerian elements: AFSPC